LEMUR-2-DUNLOP (43053 NORAD) Tracking and Keplerian Element Data

This shows tracking and keplerian element data for the satellite.

Feedback or suggestion? Click here.




ElementValue
Catalog43053
NameLEMUR-2-DUNLOP
Epoch Orbit21472
Epoch Day268.70877857
Epoch Year2021
RAAN265.4004
Inclination51.6311
Eccentricity0.0002442
Argument of Perigee83.3741
Mean Anonmoly276.7529
Mean Motion15.59528358
Decay Rate0.00036642
L11 43053U 17071S 21268.70877857 .00036642 00000-0 45684-3 0 9990
L22 43053 51.6311 265.4004 0002442 83.3741 276.7529 15.59528358214728

Live tracking and technical data element details for LEMUR-2-DUNLOP (NORAD 43053). LEMUR-2-DUNLOP can be tracked NOW for your location showing map with azimuth and elevation plus other details from your city location.

Track the satellite on the map from your city or location and see movement details for azimuth, elevation, latitude, longitude, range, height, and movement on the map or in text.







IsCatalogInMostPopularTable: catalog: 43053, numindb: 592
Update: records affected: 1



GetName: 43053 LEMUR-2-DUNLOP

Hit Count: updated at: Mon, 27 Sep 2021 00:05:18 GMT